User: anonymous   Login
Location: Unspecified
(0.0000°N, 0.0000°E)
Time: 19:45:32
(UTC+00:00)
Language:

POSAT 1 - Orbit

View from above orbital plane
View from above orbital plane
View from above satellite
View from above satellite

Ground track
Ground track

The orbit data is extracted from the following two-line orbital elements,

1 22829U 93061G   19077.90968081 -.00000010 +00000-0 +13904-4 0  9990
2 22829 098.8826 066.1981 0009172 206.6688 173.7966 14.31025711329358
Epoch (UTC): 18 March 2019 21:49:56
Eccentricity: 0.0009172
inclination: 98.8826°
perigee height: 782 km
apogee height: 795 km
right ascension of ascending node: 66.1981°
argument of perigee: 206.6688°
revolutions per day: 14.31025711
mean anomaly at epoch: 173.7966°
orbit number at epoch: 32935

The dashed part of the orbit path shows where the satellite is in the earth's shadow,  

DLR